TimeEST,TemperatureF,Dew PointF,Humidity,Sea Level PressureIn,VisibilityMPH,Wind Direction,Wind SpeedMPH,Gust SpeedMPH,PrecipitationIn,Events,Conditions,WindDirDegrees,DateUTC
12:54 AM,37.0,30.0,76,29.72,10.0,SW,11.5,-,N/A,,Scattered Clouds,220,2012-02-22 05:54:00
1:54 AM,36.0,30.0,79,29.72,10.0,SW,9.2,-,N/A,,Mostly Cloudy,230,2012-02-22 06:54:00
2:54 AM,35.1,28.9,78,29.70,10.0,SSW,10.4,-,N/A,,Overcast,210,2012-02-22 07:54:00
3:54 AM,35.1,28.0,76,29.69,10.0,SW,9.2,-,N/A,,Overcast,230,2012-02-22 08:54:00
4:54 AM,35.1,28.0,76,29.68,10.0,SSW,6.9,-,N/A,,Overcast,200,2012-02-22 09:54:00
5:54 AM,35.1,28.0,76,29.66,10.0,SSW,10.4,-,N/A,,Overcast,200,2012-02-22 10:54:00
6:54 AM,35.1,28.9,78,29.65,7.0,WSW,6.9,-,0.00,Snow,Light Snow,240,2012-02-22 11:54:00
7:21 AM,33.8,28.4,81,29.64,1.5,SW,8.1,-,0.00,Snow,Light Snow,230,2012-02-22 12:21:00
7:44 AM,33.8,30.2,87,29.63,1.5,SSW,8.1,-,0.01,Snow,Light Snow,210,2012-02-22 12:44:00
7:54 AM,33.1,30.0,89,29.65,0.8,SSW,6.9,-,0.02,Snow,Light Snow,210,2012-02-22 12:54:00
8:04 AM,33.8,30.2,87,29.63,1.0,SSW,5.8,-,0.00,Snow,Light Snow,210,2012-02-22 13:04:00
8:44 AM,33.8,30.2,87,29.62,0.8,SSW,4.6,-,N/A,Snow,Light Snow,200,2012-02-22 13:44:00
8:51 AM,33.8,30.2,87,29.62,1.0,SSW,4.6,-,0.02,Snow,Light Snow,200,2012-02-22 13:51:00
8:54 AM,34.0,30.9,89,29.64,0.8,SSW,3.5,-,0.02,Snow,Light Snow,200,2012-02-22 13:54:00
9:10 AM,33.8,32.0,93,29.61,0.5,South,3.5,-,0.01,Fog-Snow,Snow,190,2012-02-22 14:10:00
9:50 AM,33.8,32.0,93,29.60,0.5,Calm,Calm,-,0.04,Fog-Snow,Snow,0,2012-02-22 14:50:00
9:51 AM,33.8,32.0,93,29.60,0.5,Calm,Calm,-,N/A,Fog-Snow,Snow,0,2012-02-22 14:51:00
10:16 AM,33.8,32.0,93,29.59,0.8,Calm,Calm,-,0.02,Snow,Light Snow,0,2012-02-22 15:16:00
10:23 AM,33.8,30.2,87,29.58,0.8,South,3.5,-,0.02,Snow,Light Snow,180,2012-02-22 15:23:00
10:45 AM,33.8,32.0,93,29.58,0.8,South,4.6,-,0.03,Snow,Light Snow,180,2012-02-22 15:45:00
10:54 AM,34.0,30.9,89,29.60,0.8,South,5.8,-,0.03,Snow,Light Snow,170,2012-02-22 15:54:00
11:00 AM,33.8,30.2,87,29.57,1.5,South,5.8,-,0.00,Snow,Light Snow,170,2012-02-22 16:00:00
11:28 AM,35.6,32.0,87,29.55,4.0,South,5.8,-,0.00,,Overcast,170,2012-02-22 16:28:00
11:35 AM,35.6,32.0,87,29.55,2.0,SSE,5.8,-,0.00,Rain,Light Rain,150,2012-02-22 16:35:00
11:54 AM,35.1,32.0,89,29.57,7.0,South,5.8,-,0.00,,Overcast,180,2012-02-22 16:54:00
12:54 PM,36.0,32.0,86,29.54,6.0,South,6.9,-,0.00,Rain,Light Rain,180,2012-02-22 17:54:00
1:10 PM,35.6,32.0,87,29.52,4.0,South,5.8,-,0.01,Snow,Light Snow,190,2012-02-22 18:10:00
1:21 PM,35.6,32.0,87,29.51,1.5,South,5.8,-,0.01,Snow,Light Snow,190,2012-02-22 18:21:00
1:54 PM,34.0,32.0,92,29.52,1.0,South,5.8,-,0.03,Snow,Light Snow,180,2012-02-22 18:54:00
2:19 PM,33.8,32.0,93,29.49,1.0,SSE,4.6,-,0.01,Snow,Light Snow,160,2012-02-22 19:19:00
2:27 PM,33.8,32.0,93,29.48,0.8,South,5.8,-,0.02,Snow,Light Snow,170,2012-02-22 19:27:00
2:54 PM,34.0,32.0,92,29.50,0.8,South,5.8,-,0.03,Snow,Light Snow,170,2012-02-22 19:54:00
3:17 PM,35.6,32.0,87,29.47,1.5,ESE,3.5,-,0.01,Snow,Light Snow,120,2012-02-22 20:17:00
3:32 PM,35.6,32.0,87,29.46,1.5,ESE,3.5,-,0.01,,Overcast,120,2012-02-22 20:32:00
3:43 PM,35.6,33.8,93,29.45,5.0,East,3.5,-,0.01,Rain,Light Rain,100,2012-02-22 20:43:00
3:51 PM,35.6,33.8,93,29.45,5.0,ESE,3.5,-,0.01,Rain,Light Rain,110,2012-02-22 20:51:00
3:54 PM,36.0,33.1,89,29.47,5.0,ESE,3.5,-,0.01,Rain,Light Rain,110,2012-02-22 20:54:00
4:43 PM,35.6,33.8,93,29.44,6.0,Variable,3.5,-,0.00,,Overcast,0,2012-02-22 21:43:00
4:54 PM,37.0,34.0,89,29.45,6.0,ESE,3.5,-,0.00,,Overcast,110,2012-02-22 21:54:00
5:12 PM,37.4,33.8,87,29.44,7.0,Calm,Calm,-,N/A,,Overcast,0,2012-02-22 22:12:00
5:28 PM,37.4,33.8,87,29.44,7.0,SE,4.6,-,N/A,,Overcast,140,2012-02-22 22:28:00
5:54 PM,37.0,34.0,89,29.46,6.0,ESE,3.5,-,N/A,,Overcast,110,2012-02-22 22:54:00
6:20 PM,35.6,33.8,93,29.43,6.0,Calm,Calm,-,N/A,,Overcast,0,2012-02-22 23:20:00
6:54 PM,35.1,33.1,92,29.46,4.0,Calm,Calm,-,N/A,,Overcast,0,2012-02-22 23:54:00
7:12 PM,35.6,32.0,87,29.44,2.5,Calm,Calm,-,N/A,,Overcast,0,2012-02-23 00:12:00
7:19 PM,35.6,33.8,93,29.44,4.0,Calm,Calm,-,N/A,,Overcast,0,2012-02-23 00:19:00
7:54 PM,32.0,30.0,92,29.46,6.0,Calm,Calm,-,N/A,,Scattered Clouds,0,2012-02-23 00:54:00
8:09 PM,32.0,28.4,87,29.44,0.2,Calm,Calm,-,N/A,Fog,Fog,0,2012-02-23 01:09:00
8:16 PM,32.0,30.2,93,29.44,0.2,Calm,Calm,-,N/A,Fog,Fog,0,2012-02-23 01:16:00
8:36 PM,30.2,28.4,93,29.44,1.0,Calm,Calm,-,N/A,,Overcast,0,2012-02-23 01:36:00
8:50 PM,33.8,30.2,87,29.44,0.5,South,3.5,-,N/A,Fog,Fog,190,2012-02-23 01:50:00
8:54 PM,33.1,30.0,89,29.46,0.2,South,3.5,-,N/A,Fog,Fog,180,2012-02-23 01:54:00
9:01 PM,33.8,30.2,87,29.44,0.2,Calm,Calm,-,N/A,Fog,Fog,0,2012-02-23 02:01:00
9:04 PM,33.8,30.2,87,29.44,0.5,Calm,Calm,-,N/A,Fog,Fog,0,2012-02-23 02:04:00
9:26 PM,32.0,28.4,87,29.44,4.0,SSW,3.5,-,N/A,,Mostly Cloudy,200,2012-02-23 02:26:00
9:44 PM,32.0,30.2,93,29.44,4.0,SSW,3.5,-,N/A,,Overcast,200,2012-02-23 02:44:00
9:54 PM,32.0,30.0,92,29.47,4.0,SW,3.5,-,N/A,,Overcast,220,2012-02-23 02:54:00
10:54 PM,32.0,30.0,92,29.47,3.0,Calm,Calm,-,N/A,,Scattered Clouds,0,2012-02-23 03:54:00
11:42 PM,33.8,30.2,87,29.45,4.0,SW,8.1,-,N/A,,Mostly Cloudy,230,2012-02-23 04:42:00
11:54 PM,33.1,30.9,92,29.47,5.0,WSW,5.8,-,N/A,,Mostly Cloudy,240,2012-02-23 04:54:00